"Period start","avg(HW err(1)/warn(2) (#))","avg(Visibility (m))","avg(Weather code (#))","avg(Precip intensity (mm/h))","min(HW err(1)/warn(2) (#))","max(HW err(1)/warn(2) (#))","std(HW err(1)/warn(2) (#))","med(HW err(1)/warn(2) (#))","min(Visibility (m))","max(Visibility (m))","std(Visibility (m))","med(Visibility (m))","min(Weather code (#))","max(Weather code (#))","std(Weather code (#))","med(Weather code (#))","min(Precip intensity (mm/h))","max(Precip intensity (mm/h))","std(Precip intensity (mm/h))","med(Precip intensity (mm/h))"
2016-06-26 00:00:00,2,45228,0,0.00,0,2,1,2,34572,50000,5174,46484,0,0,0,0,0.00,0.00,0.00,0.00
2016-06-26 00:10:00,1,47069,0,0.00,0,2,1,0,39885,50000,3987,50000,0,0,0,0,0.00,0.00,0.00,0.00
2016-06-26 00:20:00,0,41930,0,0.00,0,0,0,0,14760,50000,11198,47012,0,0,0,0,0.00,0.00,0.00,0.00
2016-06-26 00:30:00,0,45276,0,0.00,0,0,0,0,36417,50000,4944,46187,0,0,0,0,0.00,0.00,0.00,0.00
2016-06-26 00:40:00,1,39800,0,0.00,0,2,1,2,12028,50000,11840,43980,0,0,0,0,0.00,0.00,0.00,0.00
2016-06-26 00:50:00,2,44516,0,0.00,0,2,1,2,35080,50000,4969,45768,0,0,0,0,0.00,0.00,0.00,0.00
2016-06-26 01:00:00,0,46849,0,0.00,0,0,0,0,38652,50000,4052,49451,0,0,0,0,0.00,0.00,0.00,0.00
2016-06-26 01:10:00,0,45178,0,0.00,0,2,1,0,35630,50000,4849,45936,0,0,0,0,0.00,0.00,0.00,0.00
2016-06-26 01:20:00,0,45570,0,0.00,0,2,1,0,40082,50000,4079,46198,0,0,0,0,0.00,0.00,0.00,0.00
2016-06-26 01:30:00,0,47042,0,0.00,0,2,1,0,41470,50000,2967,47884,0,0,0,0,0.00,0.00,0.00,0.00
2016-06-26 01:40:00,0,47895,0,0.00,0,0,0,0,41292,50000,3279,50000,0,0,0,0,0.00,0.00,0.00,0.00
2016-06-26 01:50:00,0,46540,0,0.00,0,0,0,0,37708,50000,3965,48558,0,0,0,0,0.00,0.00,0.00,0.00
2016-06-26 02:00:00,2,47927,0,0.00,2,2,0,2,42939,50000,2117,47991,0,0,0,0,0.00,0.00,0.00,0.00
2016-06-26 02:10:00,1,49086,0,0.00,0,2,1,0,44624,50000,1787,50000,0,0,0,0,0.00,0.00,0.00,0.00
2016-06-26 02:20:00,0,47713,0,0.00,0,0,0,0,42066,50000,2644,48778,0,0,0,0,0.00,0.00,0.00,0.00
2016-06-26 02:30:00,1,46133,0,0.00,0,2,1,2,31898,50000,6680,49950,0,0,0,0,0.00,0.00,0.00,0.00
2016-06-26 02:40:00,0,46290,0,0.00,0,2,1,0,38737,50000,4447,49524,0,0,0,0,0.00,0.00,0.00,0.00
2016-06-26 02:50:00,0,48921,0,0.00,0,0,0,0,46601,50000,969,49135,0,0,0,0,0.00,0.00,0.00,0.00
2016-06-26 03:00:00,0,48939,0,0.00,0,0,0,0,43394,50000,2064,50000,0,0,0,0,0.00,0.00,0.00,0.00
2016-06-26 03:10:00,2,39839,0,0.00,2,2,0,2,28075,50000,5919,39192,0,0,0,0,0.00,0.00,0.00,0.00
2016-06-26 03:20:00,0,45849,0,0.00,0,2,1,0,37781,50000,4361,47726,0,0,0,0,0.00,0.00,0.00,0.00
2016-06-26 03:30:00,0,49993,0,0.00,0,0,0,0,49928,50000,22,50000,0,0,0,0,0.00,0.00,0.00,0.00
2016-06-26 03:40:00,2,44397,0,0.00,0,2,1,2,28307,50000,6432,46546,0,0,0,0,0.00,0.00,0.00,0.00
2016-06-26 03:50:00,0,47583,0,0.00,0,2,1,0,39753,50000,3641,50000,0,0,0,0,0.00,0.00,0.00,0.00
2016-06-26 04:00:00,0,47669,0,0.00,0,0,0,0,43990,50000,2224,47793,0,0,0,0,0.00,0.00,0.00,0.00
2016-06-26 04:10:00,0,49681,0,0.00,0,0,0,0,46814,50000,956,50000,0,0,0,0,0.00,0.00,0.00,0.00
2016-06-26 04:20:00,0,43055,0,0.00,0,0,0,0,35319,50000,5789,39682,0,0,0,0,0.00,0.00,0.00,0.00
2016-06-26 04:30:00,0,47784,0,0.00,0,0,0,0,39016,50000,3419,49928,0,0,0,0,0.00,0.00,0.00,0.00
2016-06-26 04:40:00,0,46644,0,0.00,0,0,0,0,37510,50000,4055,48162,0,0,0,0,0.00,0.00,0.00,0.00
2016-06-26 04:50:00,0,45917,0,0.00,0,0,0,0,35039,50000,5817,49606,0,0,0,0,0.00,0.00,0.00,0.00
2016-06-26 05:00:00,0,48125,0,0.00,0,0,0,0,41726,50000,2684,49600,0,0,0,0,0.00,0.00,0.00,0.00
2016-06-26 05:10:00,0,47372,0,0.00,0,0,0,0,34797,50000,4688,50000,0,0,0,0,0.00,0.00,0.00,0.00
2016-06-26 05:20:00,0,49650,0,0.00,0,0,0,0,47879,50000,675,50000,0,0,0,0,0.00,0.00,0.00,0.00
2016-06-26 05:30:00,0,46073,0,0.00,0,0,0,0,36708,50000,5010,49508,0,0,0,0,0.00,0.00,0.00,0.00
2016-06-26 05:40:00,0,47526,0,0.00,0,0,0,0,35873,50000,4427,50000,0,0,0,0,0.00,0.00,0.00,0.00
2016-06-26 05:50:00,0,47371,0,0.00,0,0,0,0,43066,50000,2457,47288,0,0,0,0,0.00,0.00,0.00,0.00
2016-06-26 06:00:00,0,48651,0,0.00,0,0,0,0,38343,50000,3457,50000,0,0,0,0,0.00,0.00,0.00,0.00
2016-06-26 06:10:00,0,47608,0,0.00,0,0,0,0,42372,50000,2915,49063,0,0,0,0,0.00,0.00,0.00,0.00
2016-06-26 06:20:00,0,49060,0,0.00,0,0,0,0,44490,50000,1767,50000,0,0,0,0,0.00,0.00,0.00,0.00
2016-06-26 06:30:00,0,49928,0,0.00,0,0,0,0,49280,50000,216,50000,0,0,0,0,0.00,0.00,0.00,0.00
2016-06-26 06:40:00,0,49696,0,0.00,0,0,0,0,48212,50000,620,50000,0,0,0,0,0.00,0.00,0.00,0.00
2016-06-26 06:50:00,0,48456,0,0.00,0,0,0,0,45925,50000,1388,48242,0,0,0,0,0.00,0.00,0.00,0.00
2016-06-26 07:00:00,0,47728,0,0.00,0,0,0,0,45589,50000,1585,48249,0,0,0,0,0.00,0.00,0.00,0.00
2016-06-26 07:10:00,0,48180,0,0.00,0,0,0,0,40781,50000,2669,48900,0,0,0,0,0.00,0.00,0.00,0.00
2016-06-26 07:20:00,0,49926,0,0.00,0,0,0,0,49256,50000,223,50000,0,0,0,0,0.00,0.00,0.00,0.00
2016-06-26 07:30:00,0,48532,0,0.00,0,0,0,0,41521,50000,2551,50000,0,0,0,0,0.00,0.00,0.00,0.00
2016-06-26 07:40:00,0,48121,0,0.00,0,0,0,0,39692,50000,3358,50000,0,0,0,0,0.00,0.00,0.00,0.00
2016-06-26 07:50:00,0,48835,0,0.00,0,0,0,0,45594,50000,1617,50000,0,0,0,0,0.00,0.00,0.00,0.00
2016-06-26 08:00:00,0,48354,0,0.00,0,0,0,0,43443,50000,2296,49452,0,0,0,0,0.00,0.00,0.00,0.00
2016-06-26 08:10:00,0,49866,0,0.00,0,0,0,0,48660,50000,402,50000,0,0,0,0,0.00,0.00,0.00,0.00
2016-06-26 08:20:00,0,47741,0,0.00,0,0,0,0,42779,50000,2378,48332,0,0,0,0,0.00,0.00,0.00,0.00
2016-06-26 08:30:00,0,47904,0,0.00,0,0,0,0,38842,50000,3416,49972,0,0,0,0,0.00,0.00,0.00,0.00
2016-06-26 08:40:00,0,48320,0,0.00,0,0,0,0,43026,50000,2469,49672,0,0,0,0,0.00,0.00,0.00,0.00
2016-06-26 08:50:00,0,49633,0,0.00,0,0,0,0,46333,50000,1100,50000,0,0,0,0,0.00,0.00,0.00,0.00
2016-06-26 09:00:00,0,50000,0,0.00,0,0,0,0,50000,50000,0,50000,0,0,0,0,0.00,0.00,0.00,0.00
2016-06-26 09:10:00,0,50000,0,0.00,0,0,0,0,50000,50000,0,50000,0,0,0,0,0.00,0.00,0.00,0.00
2016-06-26 09:20:00,0,49506,0,0.00,0,0,0,0,45076,50000,1477,50000,0,0,0,0,0.00,0.00,0.00,0.00
2016-06-26 09:30:00,0,49522,0,0.00,0,0,0,0,47399,50000,955,50000,0,0,0,0,0.00,0.00,0.00,0.00
2016-06-26 09:40:00,0,48145,0,0.00,0,0,0,0,41227,50000,2638,49384,0,0,0,0,0.00,0.00,0.00,0.00
2016-06-26 09:50:00,0,49318,0,0.00,0,0,0,0,46469,50000,1266,50000,0,0,0,0,0.00,0.00,0.00,0.00
2016-06-26 10:00:00,0,49822,0,0.00,0,0,0,0,48989,50000,359,50000,0,0,0,0,0.00,0.00,0.00,0.00
2016-06-26 10:10:00,0,48689,0,0.00,0,0,0,0,43824,50000,2133,50000,0,0,0,0,0.00,0.00,0.00,0.00
2016-06-26 10:20:00,0,48383,0,0.00,0,0,0,0,43499,50000,2451,50000,0,0,0,0,0.00,0.00,0.00,0.00
2016-06-26 10:30:00,0,48202,0,0.00,0,0,0,0,44418,50000,2205,49783,0,0,0,0,0.00,0.00,0.00,0.00
2016-06-26 10:40:00,0,44772,0,0.00,0,0,0,0,35105,50000,5435,46575,0,0,0,0,0.00,0.00,0.00,0.00
2016-06-26 10:50:00,0,49234,0,0.00,0,0,0,0,43367,50000,1979,50000,0,0,0,0,0.00,0.00,0.00,0.00
2016-06-26 11:00:00,0,47705,0,0.00,0,0,0,0,41547,50000,3227,49998,0,0,0,0,0.00,0.00,0.00,0.00
2016-06-26 11:10:00,0,50000,0,0.00,0,0,0,0,50000,50000,0,50000,0,0,0,0,0.00,0.00,0.00,0.00
2016-06-26 11:20:00,0,47560,0,0.00,0,0,0,0,41005,50000,3290,49660,0,0,0,0,0.00,0.00,0.00,0.00
2016-06-26 11:30:00,0,50000,0,0.00,0,0,0,0,50000,50000,0,50000,0,0,0,0,0.00,0.00,0.00,0.00
2016-06-26 11:40:00,0,49254,0,0.00,0,0,0,0,47027,50000,1083,49924,0,0,0,0,0.00,0.00,0.00,0.00
2016-06-26 11:50:00,0,48445,0,0.00,0,0,0,0,43011,50000,2487,50000,0,0,0,0,0.00,0.00,0.00,0.00
2016-06-26 12:00:00,0,50000,0,0.00,0,0,0,0,50000,50000,0,50000,0,0,0,0,0.00,0.00,0.00,0.00
2016-06-26 12:10:00,0,49295,0,0.00,0,0,0,0,46055,50000,1246,50000,0,0,0,0,0.00,0.00,0.00,0.00
2016-06-26 12:20:00,0,40068,0,0.00,0,0,0,0,21603,50000,11388,45962,0,0,0,0,0.00,0.00,0.00,0.00
2016-06-26 12:30:00,0,49636,0,0.00,0,0,0,0,46362,50000,1091,50000,0,0,0,0,0.00,0.00,0.00,0.00
2016-06-26 12:40:00,0,50000,0,0.00,0,0,0,0,50000,50000,0,50000,0,0,0,0,0.00,0.00,0.00,0.00
2016-06-26 12:50:00,0,50000,0,0.00,0,0,0,0,50000,50000,0,50000,0,0,0,0,0.00,0.00,0.00,0.00
2016-06-26 13:00:00,0,50000,0,0.00,0,0,0,0,50000,50000,0,50000,0,0,0,0,0.00,0.00,0.00,0.00
2016-06-26 13:10:00,0,49319,0,0.00,0,0,0,0,47328,50000,1061,50000,0,0,0,0,0.00,0.00,0.00,0.00
2016-06-26 13:20:00,0,50000,0,0.00,0,0,0,0,50000,50000,0,50000,0,0,0,0,0.00,0.00,0.00,0.00
2016-06-26 13:30:00,0,50000,0,0.00,0,0,0,0,50000,50000,0,50000,0,0,0,0,0.00,0.00,0.00,0.00
2016-06-26 13:40:00,0,48436,0,0.00,0,0,0,0,39318,50000,3380,50000,0,0,0,0,0.00,0.00,0.00,0.00
2016-06-26 13:50:00,0,49952,0,0.00,0,0,0,0,49523,50000,143,50000,0,0,0,0,0.00,0.00,0.00,0.00
2016-06-26 14:00:00,0,50000,0,0.00,0,0,0,0,50000,50000,0,50000,0,0,0,0,0.00,0.00,0.00,0.00
2016-06-26 14:10:00,0,50000,0,0.00,0,0,0,0,50000,50000,0,50000,0,0,0,0,0.00,0.00,0.00,0.00
2016-06-26 14:20:00,0,49945,0,0.00,0,0,0,0,49450,50000,165,50000,0,0,0,0,0.00,0.00,0.00,0.00
2016-06-26 14:30:00,0,50000,0,0.00,0,0,0,0,50000,50000,0,50000,0,0,0,0,0.00,0.00,0.00,0.00
2016-06-26 14:40:00,0,50000,0,0.00,0,0,0,0,50000,50000,0,50000,0,0,0,0,0.00,0.00,0.00,0.00
2016-06-26 14:50:00,0,50000,0,0.00,0,0,0,0,50000,50000,0,50000,0,0,0,0,0.00,0.00,0.00,0.00
2016-06-26 15:00:00,0,50000,0,0.00,0,0,0,0,50000,50000,0,50000,0,0,0,0,0.00,0.00,0.00,0.00
2016-06-26 15:10:00,0,50000,0,0.00,0,0,0,0,50000,50000,0,50000,0,0,0,0,0.00,0.00,0.00,0.00
2016-06-26 15:20:00,0,50000,0,0.00,0,0,0,0,50000,50000,0,50000,0,0,0,0,0.00,0.00,0.00,0.00
2016-06-26 15:30:00,0,49969,0,0.00,0,0,0,0,49686,50000,94,50000,0,0,0,0,0.00,0.00,0.00,0.00
2016-06-26 15:40:00,0,45828,42,0.51,0,0,0,0,34005,50000,5396,48352,0,61,27,61,0.00,1.30,0.46,0.40
2016-06-26 15:50:00,0,50000,52,0.08,0,0,0,0,50000,50000,0,50000,0,61,18,61,0.00,0.30,0.10,0.05
2016-06-26 16:00:00,0,50000,0,0.00,0,0,0,0,50000,50000,0,50000,0,0,0,0,0.00,0.00,0.00,0.00
2016-06-26 16:10:00,0,48827,46,0.12,0,0,0,0,44752,50000,2036,50000,0,61,23,56,0.00,0.60,0.19,0.00
2016-06-26 16:20:00,0,50000,54,0.20,0,0,0,0,50000,50000,0,50000,51,61,5,51,0.00,0.55,0.15,0.20
2016-06-26 16:30:00,0,50000,55,0.19,0,0,0,0,50000,50000,0,50000,51,61,5,51,0.00,0.50,0.18,0.15
2016-06-26 16:40:00,0,50000,53,0.40,0,0,0,0,50000,50000,0,50000,51,61,4,51,0.00,0.90,0.32,0.38
2016-06-26 16:50:00,0,49852,50,0.20,0,0,0,0,48839,50000,351,50000,0,61,17,52,0.00,0.65,0.21,0.15
2016-06-26 17:00:00,0,50000,0,0.00,0,0,0,0,50000,50000,0,50000,0,0,0,0,0.00,0.00,0.00,0.00
2016-06-26 17:10:00,0,49727,18,0.21,0,0,0,0,47342,50000,795,50000,0,61,28,0,0.00,1.55,0.48,0.00
2016-06-26 17:20:00,0,42616,61,1.34,0,0,0,0,31118,50000,5711,41960,61,61,0,61,0.65,3.95,1.02,0.90
2016-06-26 17:30:00,0,33302,56,3.47,0,0,0,0,12688,50000,11498,35550,52,62,5,52,0.50,10.10,3.03,2.30
2016-06-26 17:40:00,0,18837,61,8.42,0,0,0,0,11478,30749,7049,16400,61,62,0,61,3.80,17.30,3.91,7.47
2016-06-26 17:50:00,0,17133,61,7.14,0,0,0,0,9971,23142,4347,16396,61,62,0,61,3.70,14.25,3.02,6.10
2016-06-26 18:00:00,0,23300,61,5.42,0,0,0,0,17363,33135,4569,21922,61,61,0,61,2.30,8.20,1.81,4.93
2016-06-26 18:10:00,0,44712,61,2.47,0,0,0,0,32959,50000,5603,45942,61,61,0,61,1.05,3.55,0.94,2.43
2016-06-26 18:20:00,0,44443,61,2.15,0,0,0,0,37096,50000,4228,44948,61,61,0,61,1.25,5.45,1.21,1.68
2016-06-26 18:30:00,0,49438,61,1.28,0,0,0,0,47397,50000,860,50000,61,61,0,61,0.45,3.00,0.85,0.88
2016-06-26 18:40:00,0,48821,55,0.31,0,0,0,0,42222,50000,2504,50000,51,61,5,51,0.05,0.65,0.20,0.25
2016-06-26 18:50:00,0,49344,11,0.01,0,0,0,0,46674,50000,1313,50000,0,61,23,0,0.00,0.05,0.02,0.00
2016-06-26 19:00:00,0,50000,0,0.00,0,0,0,0,50000,50000,0,50000,0,0,0,0,0.00,0.00,0.00,0.00
2016-06-26 19:10:00,0,49813,0,0.00,0,0,0,0,48128,50000,562,50000,0,0,0,0,0.00,0.00,0.00,0.00
2016-06-26 19:20:00,0,50000,0,0.00,0,0,0,0,50000,50000,0,50000,0,0,0,0,0.00,0.00,0.00,0.00
2016-06-26 19:30:00,0,50000,0,0.00,0,0,0,0,50000,50000,0,50000,0,0,0,0,0.00,0.00,0.00,0.00
2016-06-26 19:40:00,0,49815,0,0.00,0,0,0,0,48153,50000,554,50000,0,0,0,0,0.00,0.00,0.00,0.00
2016-06-26 19:50:00,0,50000,0,0.00,0,0,0,0,50000,50000,0,50000,0,0,0,0,0.00,0.00,0.00,0.00
2016-06-26 20:00:00,0,49996,0,0.00,0,0,0,0,49962,50000,11,50000,0,0,0,0,0.00,0.00,0.00,0.00
2016-06-26 20:10:00,0,50000,0,0.00,0,0,0,0,50000,50000,0,50000,0,0,0,0,0.00,0.00,0.00,0.00
2016-06-26 20:20:00,0,50000,0,0.00,0,0,0,0,50000,50000,0,50000,0,0,0,0,0.00,0.00,0.00,0.00
2016-06-26 20:30:00,0,49819,0,0.00,0,0,0,0,48190,50000,543,50000,0,0,0,0,0.00,0.00,0.00,0.00
2016-06-26 20:40:00,0,50000,0,0.00,0,0,0,0,50000,50000,0,50000,0,0,0,0,0.00,0.00,0.00,0.00
2016-06-26 20:50:00,0,47317,0,0.00,0,0,0,0,29889,50000,6129,50000,0,0,0,0,0.00,0.00,0.00,0.00
2016-06-26 21:00:00,0,50000,0,0.00,0,0,0,0,50000,50000,0,50000,0,0,0,0,0.00,0.00,0.00,0.00
2016-06-26 21:10:00,0,50000,0,0.00,0,0,0,0,50000,50000,0,50000,0,0,0,0,0.00,0.00,0.00,0.00
2016-06-26 21:20:00,0,50000,0,0.00,0,0,0,0,50000,50000,0,50000,0,0,0,0,0.00,0.00,0.00,0.00
2016-06-26 21:30:00,0,50000,0,0.00,0,0,0,0,50000,50000,0,50000,0,0,0,0,0.00,0.00,0.00,0.00
2016-06-26 21:40:00,0,49948,0,0.00,0,0,0,0,49478,50000,157,50000,0,0,0,0,0.00,0.00,0.00,0.00
2016-06-26 21:50:00,0,50000,0,0.00,0,0,0,0,50000,50000,0,50000,0,0,0,0,0.00,0.00,0.00,0.00
2016-06-26 22:00:00,0,50000,0,0.00,0,0,0,0,50000,50000,0,50000,0,0,0,0,0.00,0.00,0.00,0.00
2016-06-26 22:10:00,0,50000,0,0.00,0,0,0,0,50000,50000,0,50000,0,0,0,0,0.00,0.00,0.00,0.00
2016-06-26 22:20:00,0,50000,0,0.00,0,0,0,0,50000,50000,0,50000,0,0,0,0,0.00,0.00,0.00,0.00
2016-06-26 22:30:00,0,49644,0,0.00,0,0,0,0,48204,50000,711,50000,0,0,0,0,0.00,0.00,0.00,0.00
2016-06-26 22:40:00,0,50000,0,0.00,0,0,0,0,50000,50000,0,50000,0,0,0,0,0.00,0.00,0.00,0.00
2016-06-26 22:50:00,0,50000,0,0.00,0,0,0,0,50000,50000,0,50000,0,0,0,0,0.00,0.00,0.00,0.00
2016-06-26 23:00:00,0,49793,0,0.00,0,0,0,0,48551,50000,453,50000,0,0,0,0,0.00,0.00,0.00,0.00
2016-06-26 23:10:00,0,50000,0,0.00,0,0,0,0,50000,50000,0,50000,0,0,0,0,0.00,0.00,0.00,0.00
2016-06-26 23:20:00,0,49958,0,0.00,0,0,0,0,49577,50000,127,50000,0,0,0,0,0.00,0.00,0.00,0.00
2016-06-26 23:30:00,0,49819,0,0.00,0,0,0,0,48190,50000,543,50000,0,0,0,0,0.00,0.00,0.00,0.00
2016-06-26 23:40:00,0,50000,0,0.00,0,0,0,0,50000,50000,0,50000,0,0,0,0,0.00,0.00,0.00,0.00
2016-06-26 23:50:00,0,50000,0,0.00,0,0,0,0,50000,50000,0,50000,0,0,0,0,0.00,0.00,0.00,0.00
